Theta_e
307 307 306 307 307 307 306 307 306 306 306 306 307 307 308 307 306 303 299 302 299 296 296 299 299 295 295 294 290 293 290 290 289 285 285 284 284 287 286 288 288 285 285 285 287 284 282 296 298 294 300 304 306 308
306 306 307 307 307 307 306 306 305 306 307 306 306 307 307 307 307 305 297 302 308 299 297 303 303 303 301 300 296 294 291 291 293 288 286 286 285 287 286 283 292 286 289 286 288 287 294 297 299 302 304 304 305 308
306 307 306 306 306 306 306 304 304 306 306 305 306 307 307 308 307 305 300 300 300 298 297 297 298 305 306 305 305 292 294 294 295 296 291 289 285 290 284 286 289 292 296 290 292 294 296 298 301 303 303 305 307 308
305 305 305 305 305 305 305 304 305 306 306 305 306 306 307 307 307 305 299 300 301 299 291 294 305 301 307 307 304 301 298 297 297 295 292 290 287 294 291 291 290 293 294 292 291 295 298 299 301 302 302 306 307 307
304 303 303 304 304 304 304 305 305 305 305 306 306 306 306 306 306 304 302 302 303 298 292 294 300 305 306 306 303 302 300 296 293 292 292 291 296 293 295 295 291 295 292 290 287 296 296 297 301 303 302 304 307 306
302 302 303 303 303 303 304 304 305 305 306 305 305 306 306 306 306 301 299 305 305 305 296 289 299 300 306 306 305 302 301 298 295 294 294 296 301 294 289 288 294 296 298 297 296 300 300 302 302 304 302 304 307 307
301 301 301 301 302 303 302 303 305 305 306 306 306 306 306 306 303 299 299 304 307 308 297 291 292 303 305 304 303 303 303 300 299 298 294 294 295 296 290 287 293 297 300 300 302 301 299 301 300 303 305 305 307 308
299 299 300 300 301 301 301 302 303 304 304 305 305 305 305 305 304 301 306 308 307 303 300 290 291 298 306 298 296 303 300 301 299 296 297 294 296 293 288 294 297 299 300 300 301 302 301 304 304 304 306 306 305 305
298 299 299 299 300 301 301 302 303 304 304 305 305 305 304 303 303 304 307 308 306 302 293 294 289 289 304 299 300 298 300 292 300 294 294 295 291 285 292 296 297 298 299 298 301 302 303 302 302 303 304 305 304 305
298 298 298 299 299 299 300 302 303 303 304 305 304 302 299 302 308 307 302 299 299 298 298 292 296 292 299 298 296 295 298 293 289 295 298 291 289 296 298 299 298 298 300 301 298 298 300 301 302 302 302 304 304 305
297 298 298 298 298 299 299 300 302 304 304 303 299 298 301 308 303 301 294 294 294 292 295 295 295 293 303 294 293 296 292 293 288 292 291 289 286 294 299 300 302 300 300 301 301 303 300 303 302 302 301 303 303 304
296 297 297 297 298 299 299 300 302 300 298 297 297 299 301 298 296 292 291 295 294 292 298 297 298 299 300 301 293 294 290 291 287 297 290 287 293 297 299 300 300 300 300 302 303 302 303 303 303 303 302 302 304 304
296 297 297 298 298 300 301 302 302 302 302 302 296 293 292 293 287 288 285 291 293 298 300 300 296 299 299 299 293 291 286 285 295 288 288 293 297 298 299 300 300 301 301 303 302 303 304 303 304 303 302 303 304 303
296 297 297 298 300 302 302 301 301 300 299 296 293 286 288 287 291 292 293 296 300 301 298 298 297 296 298 293 294 286 290 292 285 283 286 294 298 300 300 301 300 301 301 302 302 303 303 302 303 304 301 302 301 301
296 296 297 299 299 299 299 300 299 300 297 293 295 287 290 295 298 300 301 300 302 301 298 297 297 298 294 292 293 290 286 284 285 284 292 297 300 302 301 302 300 300 301 301 303 302 303 303 302 302 303 303 301 301
296 297 297 298 298 298 298 299 300 299 298 295 294 291 296 295 296 299 301 299 303 301 302 299 295 292 291 292 288 286 284 281 286 293 299 300 302 302 302 304 302 303 303 301 302 303 302 302 302 302 302 302 301 300
295 293 299 298 298 298 299 297 298 295 293 293 291 296 296 295 295 297 299 300 305 301 295 296 291 291 295 290 287 290 286 290 296 299 301 303 302 302 303 304 304 305 303 301 301 302 303 302 302 303 301 302 300 301
293 296 298 298 298 296 297 299 295 295 290 292 289 291 294 295 295 296 299 303 303 301 299 295 298 291 288 287 288 294 297 300 301 300 301 302 302 303 304 303 304 305 302 303 302 302 301 300 299 298 299 300 299 299
295 296 297 298 298 292 291 294 296 288 291 294 295 296 296 297 299 300 301 303 305 306 301 298 294 291 291 295 296 298 299 299 299 301 302 303 305 304 304 305 305 303 303 303 303 301 301 301 300 299 298 299 296 297
296 297 297 298 298 292 288 290 298 293 290 293 295 294 295 296 298 299 300 302 302 301 297 295 294 296 297 299 301 299 300 302 300 299 300 301 303 303 304 303 302 302 302 302 302 301 301 300 301 299 299 297 296 295
295 296 297 297 295 294 291 290 290 293 294 292 295 294 294 297 296 297 297 300 299 297 296 299 299 301 303 304 304 304 303 302 300 299 300 300 303 303 303 303 304 302 302 300 301 300 299 299 300 300 300 298 298 297
293 297 294 295 289 290 291 293 290 292 290 290 290 291 289 289 290 292 295 293 293 298 300 301 302 302 302 302 302 305 305 304 304 301 299 300 303 302 301 302 301 302 300 300 301 301 299 298 297 301 299 298 297 296
296 294 292 291 285 286 285 293 287 289 285 288 290 287 288 290 293 298 293 296 296 299 300 302 303 304 304 305 306 305 305 304 303 302 301 302 304 304 303 303 303 302 300 301 302 300 300 296 297 299 299 299 298 296
296 289 286 284 285 282 289 286 291 289 288 286 285 285 287 290 294 291 289 292 296 301 301 302 303 302 302 304 302 302 302 303 302 302 303 302 302 302 303 303 304 303 303 303 301 301 300 299 296 298 297 298 297 295
283 281 283 280 287 284 282 283 284 284 282 284 284 284 286 291 286 286 287 291 295 297 300 301 302 302 300 301 301 301 305 302 300 299 303 304 304 303 303 303 303 304 305 302 300 300 300 300 299 298 296 295 295 294
278 283 281 282 283 282 283 280 282 283 284 284 285 289 290 287 284 284 289 292 294 295 295 299 301 299 299 300 300 301 302 304 303 301 303 305 303 302 301 300 300 301 304 302 301 300 299 299 298 296 293 291 288 294
277 279 284 287 285 285 283 284 285 283 282 282 285 286 286 283 284 287 291 293 292 294 297 300 300 300 298 299 301 303 304 305 304 303 303 306 306 306 304 302 300 301 303 302 302 301 299 299 298 297 296 295 294 293
283 283 279 282 283 284 281 282 281 281 283 287 287 283 282 282 284 291 293 295 295 295 296 299 299 300 300 300 301 303 304 305 305 305 305 305 305 305 305 305 306 294 300 300 300 300 300 299 298 297 296 294 293 293
282 285 284 280 282 282 282 282 282 285 287 287 284 284 286 291 294 294 296 298 300 297 295 296 299 302 302 301 299 300 302 301 300 299 297 298 300 300 300 301 301 298 296 292 286 294 299 298 297 296 296 294 292 291
282 286 282 282 280 280 284 287 286 288 290 290 290 291 291 293 292 292 291 292 293 292 293 296 297 297 296 297 295 295 296 297 297 297 296 294 297 303 303 301 300 299 298 295 293 291 288 294 292 294 291 289 287 286
286 286 283 284 283 286 288 291 291 291 291 289 290 288 288 289 288 289 288 289 289 290 288 289 293 293 294 293 292 293 292 294 295 296 297 297 298 301 302 302 302 301 299 297 295 294 293 293 293 289 288 285 286 285
286 285 284 282 284 289 291 289 288 288 288 288 288 290 290 288 283 286 287 288 286 285 285 286 287 288 292 293 293 291 288 289 288 290 293 296 296 296 297 300 300 300 298 297 296 294 292 289 288 287 286 285 285 284
287 287 287 286 285 285 288 288 287 286 287 287 287 288 286 284 280 284 289 289 286 285 286 287 288 289 291 293 292 291 290 290 287 285 285 285 285 288 295 296 296 295 294 293 292 291 290 289 287 287 286 285 284 283
Wind_Speed
18 17 18 18 18 18 19 19 20 20 21 20 19 18 18 16 13 7 8 9 4 4 15 14 16 14 16 12 5 5 7 4 3 6 4 4 4 5 4 4 4 3 5 1 1 3 4 14 16 7 5 13 15 5
18 18 17 18 17 18 18 19 20 19 18 20 19 18 17 17 13 10 6 6 3 6 9 16 21 24 19 22 6 3 3 3 4 3 4 3 3 4 4 4 5 2 5 4 6 3 2 14 12 10 11 11 11 7
19 18 17 17 17 16 18 21 23 19 20 20 19 19 18 17 14 9 6 7 5 4 9 5 8 5 10 15 7 3 2 4 2 3 2 2 4 3 3 3 3 5 6 4 2 5 5 6 14 14 17 12 12 12
17 17 17 17 18 18 18 19 21 21 20 20 19 19 19 18 15 13 7 4 4 3 4 7 8 13 10 10 8 5 2 2 1 2 3 3 4 5 0 1 3 3 4 6 4 3 3 3 10 16 14 14 13 13
14 16 18 19 19 18 18 19 21 21 20 20 20 20 19 18 17 11 8 9 8 4 4 8 19 7 9 12 10 7 5 3 3 3 3 4 4 1 4 0 2 3 4 3 3 7 5 12 5 13 16 14 10 11
16 17 18 19 19 19 18 19 21 21 21 22 24 23 20 17 15 5 4 5 9 6 3 5 6 7 10 13 11 12 8 4 3 3 4 4 0 4 3 0 6 8 5 4 3 7 6 10 7 14 11 13 12 14
16 18 19 21 21 19 18 20 21 22 22 23 23 21 19 14 6 5 3 2 4 4 3 5 5 4 3 4 4 4 8 4 4 3 3 3 3 4 2 4 8 10 6 5 8 10 5 10 8 11 12 11 11 15
17 18 19 20 20 20 21 21 22 23 24 26 25 21 19 19 9 5 6 6 1 2 3 3 5 4 5 4 3 4 4 4 4 4 3 2 3 2 3 4 2 5 7 5 8 6 6 6 7 12 14 16 15 13
17 18 19 20 20 19 20 22 22 23 27 29 28 25 4 3 3 1 1 2 1 2 3 4 3 4 1 4 3 1 3 3 2 3 3 3 3 2 1 1 3 4 2 7 9 7 7 7 8 10 11 13 13 14
18 18 20 20 20 20 21 22 23 25 28 31 8 3 2 1 6 5 1 3 2 2 3 5 5 5 2 3 2 3 3 2 1 4 2 2 2 3 4 4 5 4 4 1 6 9 7 9 9 7 9 10 11 11
17 19 20 20 21 21 20 21 23 21 14 5 5 4 5 9 3 4 3 4 4 5 6 6 9 7 5 2 1 1 2 4 2 3 3 2 2 3 6 6 5 3 5 6 4 6 5 3 6 8 8 9 8 8
18 19 20 20 21 21 19 18 17 9 5 8 7 7 4 3 3 4 4 4 7 6 6 5 5 4 3 3 3 1 0 3 4 3 2 2 3 4 6 9 5 3 8 8 7 9 6 4 5 7 8 7 9 9
19 20 20 21 21 21 17 11 13 17 15 2 3 3 2 3 4 7 6 5 4 4 4 4 4 4 3 3 2 2 1 4 5 3 1 2 4 6 3 5 5 3 5 9 9 9 3 7 9 7 5 4 5 8
20 21 22 22 17 11 13 13 15 11 5 4 3 5 6 6 6 7 7 6 4 3 3 2 4 4 4 3 3 2 4 1 3 3 2 4 4 5 3 3 2 2 4 10 9 10 7 6 5 4 6 5 7 10
21 22 22 8 12 14 16 17 15 4 3 5 4 6 7 9 9 8 8 9 6 4 2 2 3 3 2 2 3 1 1 3 5 4 2 1 4 4 5 5 2 3 6 7 4 5 9 7 3 5 6 5 6 8
21 21 2 9 15 20 20 15 5 4 4 5 7 7 9 9 9 8 6 5 3 1 1 2 0 1 4 4 3 4 2 5 5 3 2 9 8 12 6 6 4 2 6 5 6 7 7 6 4 3 3 6 6 7
19 4 16 21 21 23 21 4 4 7 6 6 5 6 9 11 11 11 9 6 2 3 3 3 2 6 3 3 4 5 6 5 4 4 4 4 6 7 6 6 3 1 6 5 4 4 7 5 6 5 7 6 7 6
10 10 20 23 18 13 3 4 5 6 10 8 6 7 8 10 11 11 10 9 3 6 7 6 4 3 4 4 4 5 5 4 5 4 5 6 5 5 7 9 9 8 7 7 6 4 7 7 5 3 6 7 7 8
11 13 22 24 13 2 5 4 4 6 6 6 8 9 11 9 10 11 10 9 5 2 2 1 3 3 5 5 4 2 2 4 4 4 3 6 3 5 2 7 8 5 6 7 5 4 5 7 5 3 3 5 5 4
20 19 19 21 8 3 5 6 4 6 5 5 8 9 9 8 9 9 8 7 3 3 4 4 5 4 4 4 6 6 6 5 3 2 0 3 3 6 3 4 5 6 3 4 7 7 5 5 5 4 5 4 5 5
15 3 12 9 3 6 5 5 6 5 7 7 9 9 8 8 8 6 5 6 5 4 5 4 6 7 8 5 2 2 3 7 7 6 6 4 1 4 3 3 2 4 5 2 4 5 6 5 5 5 6 5 5 5
8 15 7 5 5 5 6 6 6 5 6 7 9 9 6 7 9 11 9 9 7 5 6 9 7 7 9 7 6 2 6 6 4 6 9 10 9 5 4 4 1 3 4 5 4 6 5 4 3 8 7 6 6 5
13 5 5 5 6 6 6 7 6 6 6 5 7 11 7 8 7 9 6 6 8 8 9 8 12 16 9 2 2 2 11 11 7 6 7 7 5 7 4 5 4 4 5 4 6 6 6 6 4 6 7 7 5 5
2 3 4 5 8 6 5 6 4 4 5 8 10 16 12 9 9 8 10 8 8 8 8 7 3 3 5 8 4 5 5 4 5 4 7 8 5 3 3 1 6 5 6 5 5 7 6 5 6 6 5 6 6 6
4 6 4 6 5 5 6 5 11 10 15 15 18 14 7 7 10 13 14 10 9 9 4 4 3 4 6 5 4 1 2 1 2 3 5 8 7 5 5 2 2 2 6 6 5 6 7 6 6 7 6 6 6 7
5 5 6 5 4 6 6 9 8 10 8 7 5 5 3 7 9 8 5 10 10 10 12 13 4 4 9 3 8 4 3 2 4 3 9 9 9 10 12 11 6 1 1 8 8 8 8 8 8 11 8 7 5 3
6 8 6 7 9 10 9 10 9 6 7 5 4 5 3 4 1 5 2 6 7 8 11 10 13 6 5 7 3 3 4 6 8 5 2 9 9 7 7 6 7 8 5 6 6 6 12 11 9 8 8 7 6 6
9 6 13 10 11 9 15 12 12 13 8 4 2 4 4 2 2 3 4 3 2 8 9 8 10 11 10 5 6 9 10 8 8 8 8 6 4 5 6 4 5 7 2 4 7 6 7 10 9 8 8 9 6 8
7 4 9 15 13 10 11 11 10 8 10 10 9 8 3 1 1 5 4 6 5 5 9 10 7 7 10 11 11 11 10 9 10 9 10 7 5 5 4 8 8 7 8 9 9 8 9 9 10 8 10 9 9 8
11 8 9 10 13 11 11 9 11 12 9 9 7 4 5 4 7 9 8 9 10 10 9 8 9 11 10 10 8 10 10 9 9 7 4 7 4 5 6 4 6 8 8 9 9 8 11 13 14 11 11 9 6 5
5 4 7 9 11 10 10 9 9 9 8 9 9 9 6 7 5 8 11 10 9 8 9 10 9 9 8 8 8 7 7 9 11 12 7 6 7 6 7 7 7 5 5 9 8 6 6 8 10 12 12 9 8 6
5 5 5 6 8 6 8 8 8 7 8 7 8 4 2 5 4 4 8 9 9 9 9 7 7 8 9 7 7 6 7 5 7 7 11 8 10 12 10 7 7 6 9 13 13 12 13 12 9 9 10 11 8 8
8 8 7 3 3 2 1 2 2 4 5 4 2 6 5 5 6 6 5 8 7 7 6 5 4 5 8 8 7 4 6 7 9 9 12 12 12 9 6 7 9 11 13 11 11 12 13 14 10 10 9 9 10 10
Wind_Direction
301 302 302 301 302 306 310 311 315 317 317 319 319 320 319 317 319 319 283 275 227 269 283 272 281 284 308 300 307 329 325 3 324 1 350 346 325 355 322 322 357 352 305 304 213 42 337 1 315 53 334 320 294 342
300 301 302 303 303 304 305 308 313 309 310 315 316 315 315 313 308 307 275 283 333 255 276 294 278 267 251 250 267 114 280 274 342 343 15 304 314 309 338 0 357 355 346 326 352 75 331 324 333 347 305 255 321 48
304 307 307 306 304 304 303 311 312 307 307 310 310 311 311 308 308 294 278 284 292 263 280 262 272 275 215 230 183 146 210 278 269 37 315 283 285 279 338 357 358 340 6 355 15 1 309 311 333 330 320 326 358 10
308 311 314 311 307 304 304 307 307 305 302 306 307 307 308 307 308 300 275 258 241 278 274 279 316 308 302 121 142 173 142 128 214 245 242 244 253 218 348 314 2 323 308 339 318 297 321 2 338 308 316 333 359 354
312 310 308 306 303 309 309 308 307 305 304 304 306 308 311 312 308 295 259 235 226 234 290 301 301 278 177 156 167 168 190 186 239 249 221 239 253 313 85 144 63 316 326 354 292 323 324 313 304 307 328 330 344 351
309 309 310 311 309 310 311 315 312 307 304 308 306 306 307 310 316 292 276 186 213 191 282 297 305 283 155 171 188 189 183 175 233 252 246 256 27 46 91 331 31 343 336 329 303 269 285 293 350 324 303 320 350 340
311 313 312 312 313 314 318 314 310 313 311 305 299 298 299 298 303 240 318 327 325 148 250 275 281 263 153 188 215 188 187 199 198 254 252 256 336 57 64 17 349 309 351 348 340 333 324 346 339 345 349 335 349 351
316 315 311 311 314 316 314 313 312 310 310 303 300 298 292 293 283 247 244 231 227 229 256 269 271 265 204 225 225 176 202 164 230 247 274 259 321 99 84 358 353 17 353 346 315 297 311 307 323 359 7 13 9 9
317 316 315 316 317 317 318 315 313 312 306 304 302 298 276 203 231 225 25 8 355 266 276 236 250 273 131 260 224 231 209 206 233 217 269 65 7 77 72 53 356 20 325 306 348 5 4 26 11 17 11 7 8 10
319 320 320 323 321 319 317 320 322 319 308 302 290 217 121 205 151 140 103 176 168 251 238 257 242 259 36 332 331 7 332 258 171 252 53 47 247 224 228 198 213 228 176 243 355 6 6 19 16 28 23 10 14 7
322 320 321 321 322 321 318 319 321 327 309 336 341 360 330 310 238 214 223 192 167 221 214 234 205 230 0 232 197 58 312 296 271 287 180 193 274 169 186 192 212 91 119 119 40 37 17 16 39 34 27 9 354 357
324 322 321 321 320 318 317 318 320 337 343 300 291 290 270 280 242 240 229 215 201 233 189 212 192 151 207 105 87 1 242 345 279 318 198 174 203 161 187 122 177 95 92 92 89 50 346 24 30 43 31 11 4 15
322 322 322 321 317 316 314 309 325 317 305 258 214 241 231 228 242 214 211 224 213 208 164 208 154 110 54 95 64 67 10 249 328 325 241 188 178 121 103 89 74 92 58 131 117 114 338 53 50 55 32 351 338 27
323 323 323 319 313 341 334 327 324 324 285 258 222 250 215 217 233 208 251 268 206 204 50 30 142 132 181 141 139 156 224 63 342 266 250 124 94 133 169 105 123 16 38 124 114 106 100 53 54 40 18 37 41 39
323 323 317 318 349 337 323 314 309 289 269 270 228 241 233 235 279 273 247 265 273 143 121 350 52 132 94 137 186 115 277 246 214 233 230 178 221 219 166 158 148 34 68 49 102 94 120 108 82 28 1 10 72 58
325 314 9 355 345 335 321 311 263 201 239 242 238 264 279 283 282 291 263 287 286 231 140 81 317 182 193 165 146 187 192 226 245 233 182 157 190 247 188 153 124 66 105 88 55 91 84 88 94 152 73 43 59 85
319 222 351 351 339 325 311 264 236 210 235 236 249 270 271 276 275 279 284 281 106 297 239 129 183 220 218 162 179 166 203 220 229 249 132 155 156 195 174 132 141 187 122 115 108 85 110 96 38 32 55 50 38 45
290 315 330 320 327 314 263 216 261 249 230 234 250 251 258 265 269 270 275 282 277 194 218 180 180 217 216 196 211 217 206 211 225 238 201 167 213 217 161 175 183 181 162 162 148 145 114 108 72 42 66 70 30 24
305 305 302 302 313 301 281 240 222 259 264 284 255 260 261 263 258 260 266 272 264 214 144 331 176 191 223 237 252 31 143 205 215 248 123 148 69 263 204 122 134 145 165 167 150 154 122 121 124 88 99 85 82 44
296 289 287 285 273 251 261 261 248 255 261 256 294 280 277 275 282 286 290 284 279 306 179 180 232 230 231 269 153 188 211 207 187 68 189 193 182 265 113 112 149 152 211 146 174 139 144 127 131 132 90 87 91 90
302 272 331 317 243 222 266 264 247 257 259 258 263 281 270 279 285 292 299 312 286 226 255 207 236 257 261 272 265 280 220 172 185 174 181 170 184 149 147 157 281 175 168 178 110 98 114 138 159 135 126 108 83 113
275 291 292 258 242 250 236 227 251 300 309 288 295 274 266 280 287 283 286 282 275 251 235 261 242 236 253 241 252 213 352 357 337 169 134 153 173 169 189 211 181 202 148 145 138 134 117 87 51 120 124 122 103 98
262 234 219 238 245 239 249 214 237 226 249 283 326 316 299 304 288 288 277 275 264 254 256 251 226 229 236 221 294 202 210 222 238 179 165 160 164 177 176 166 233 160 133 120 114 117 131 144 97 113 124 117 113 102
103 249 236 234 208 256 253 241 262 268 277 288 291 293 294 286 279 275 267 265 276 279 285 259 166 73 16 313 240 232 228 204 221 214 166 122 120 116 33 202 129 146 166 149 133 139 151 134 134 99 83 105 119 111
268 240 224 258 257 236 246 241 257 265 267 269 269 271 269 295 298 292 291 293 300 321 322 9 332 187 199 239 274 263 96 70 164 124 97 118 123 103 102 37 321 314 188 145 143 144 139 147 119 110 97 77 89 110
248 235 213 236 244 252 255 274 283 299 306 304 287 285 292 259 254 273 352 8 336 355 354 321 264 92 281 43 53 27 75 31 310 108 131 144 156 160 171 198 171 355 221 148 147 152 148 132 122 122 120 112 108 125
229 242 228 249 275 280 276 290 306 283 278 275 298 316 274 247 106 17 300 6 354 344 337 332 339 343 1 43 349 4 23 49 37 337 208 167 161 158 161 159 159 162 211 157 157 150 139 139 139 135 133 112 98 81
229 245 250 253 256 267 280 290 294 287 270 258 337 14 353 311 276 332 40 36 14 340 349 346 344 347 358 10 356 35 29 24 26 13 38 50 51 125 132 152 170 215 91 95 119 105 115 124 126 124 122 123 109 98
243 255 271 271 272 271 274 270 270 266 270 282 292 315 220 352 334 13 351 328 307 7 350 351 351 357 16 55 43 35 29 24 29 42 51 28 358 355 103 126 106 101 94 84 60 86 107 128 123 118 112 106 98 90
268 255 248 256 261 264 253 251 268 276 277 267 284 226 248 118 40 20 13 2 6 23 12 7 18 20 22 19 53 49 37 28 39 35 23 54 312 304 354 359 117 120 110 102 103 103 97 102 102 96 93 90 90 103
271 269 254 258 269 265 272 273 272 265 270 288 266 273 283 117 95 39 20 8 6 23 23 16 28 20 17 33 23 29 36 20 17 33 49 52 28 31 354 22 33 50 72 137 135 140 114 95 106 112 109 111 115 110
244 246 266 272 283 276 266 264 257 246 266 283 291 288 300 98 68 39 7 2 10 12 9 3 11 7 5 28 51 51 35 23 17 13 24 34 42 49 29 31 53 51 74 79 76 85 95 99 102 109 116 123 121 107
278 271 264 287 275 260 359 173 282 241 245 218 249 36 46 62 67 18 25 9 359 345 343 347 348 343 347 33 45 59 79 53 41 33 47 45 42 37 45 56 63 60 62 65 76 88 87 88 93 106 111 116 117 117